Location: Caltech
(34.1382°N, 118.1253°W)
Time: 06:22:48
(UTC-08:00)

Iridium 49 - Visible Passes

Search period start: 29 January 2015 00:00
Search period end: 08 February 2015 00:00
Orbit: 776 x 779 km, 86.4° (Epoch: 28 January)

Date Brightness Start Highest point End Pass type
(mag) Time Alt. Az. Time Alt. Az. Time Alt. Az.
04 Feb 8.4 19:51:30 10° N 19:51:52 12° N 19:51:52 12° N visible
05 Feb 7.5 19:18:02 10° N 19:30:19 - S 19:19:58 23° NNE visible
06 Feb 6.7 18:45:01 10° NNE 18:53:38 12° SE 18:54:04 10° SE visible
06 Feb 8.0 20:25:53 10° NNW 20:30:08 25° W 20:34:14 10° SW visible
07 Feb 7.5 18:12:43 10° NE 18:15:39 16° ENE 18:18:50 10° ESE visible
07 Feb 6.9 19:51:43 10° NNW 19:56:44 48° W 20:01:43 10° SSW visible
